Back to catalog

CONNECTA IOT-14

AliveCommunicationsSSO
NORAD 67401·PAYLOAD·🇹🇷 Turkey

Launched Jan 11, 2026 from Vandenberg Space Force Base

Loading…

Next Passes (next 24 hours)

TLE

FreshSource: Space-Track

Epoch: Sep 14, 2026, 05:08 UTC

1 67401U 26004AQ  26257.21450869  .00006556  00000-0  31404-3 0  9994
2 67401  97.4567 255.0254 0010541  40.2062 319.9950 15.19224615 37277

Track CONNECTA IOT-14 in real time with AllMySat

Download on the App Store